User: anonymous   Login
Location: Theydon Bois
(51.6750°N, 0.1050°E)
Time: 17:54:43
(UTC+01:00)
Language:

BREEZE-M DEB (TANK) - Orbit

View from above orbital plane
View from above orbital plane
View from above satellite
View from above satellite

Ground track
Ground track

The orbit data is extracted from the following two-line orbital elements,

1 31863U 07032B   17290.29074275 +.00000086 +00000-0 +15081-3 0  9990
2 31863 045.9051 223.9869 4972525 123.3195 294.3929 05.52123821206223
Epoch (UTC): 17 October 2017 06:58:40
Eccentricity: 0.4972525
inclination: 45.9051°
perigee height: 420 km
apogee height: 13868 km
right ascension of ascending node: 223.9869°
argument of perigee: 123.3195°
revolutions per day: 5.52123821
mean anomaly at epoch: 294.3929°
orbit number at epoch: 20622

The dashed part of the orbit path shows where the satellite is in the earth's shadow,  

DLR